Location: Potomac Astrometric Observatory
(39.0475°N, 77.2064°W)
Time: 17:48:09
(UTC-05:00)

ISS - Visible Passes

Search period start: 12 November 2018 00:00
Search period end: 22 November 2018 00:00
Orbit: 402 x 409 km, 51.6° (Epoch: 13 November)

Date Brightness Start Highest point End Pass type
(mag) Time Alt. Az. Time Alt. Az. Time Alt. Az.
12 Nov -0.9 04:29:48 15° NE 04:29:48 15° NE 04:30:55 10° ENE visible
12 Nov -3.9 06:02:30 12° NW 06:05:32 86° SW 06:08:49 10° SE visible
13 Nov -3.1 05:12:48 41° N 05:13:28 48° NE 05:16:39 10° ESE visible
14 Nov -0.9 04:23:10 17° E 04:23:10 17° E 04:24:13 10° E visible
14 Nov -2.8 05:55:52 17° W 05:57:48 31° SW 06:00:44 10° SSE visible
15 Nov -3.4 05:06:19 54° S 05:06:19 54° S 05:09:03 10° SE visible
16 Nov -0.4 04:16:50 11° ESE 04:16:50 11° ESE 04:16:59 10° ESE visible
16 Nov -1.6 05:49:32 12° WSW 05:49:51 13° SW 05:51:20 10° SSW visible
17 Nov -1.2 05:00:07 13° S 05:00:07 13° S 05:00:40 10° S visible
21 Nov -1.4 18:07:39 10° SSE 18:08:12 11° SE 18:08:12 11° SE visible
